Location: Albany
(35.0000°S, 118.0000°E)
Time: 03:41:01
(UTC-04:00)

Tiangong - Pass Details

Date: 24 June 2021
Orbit: 373 x 386 km, 41.5° (Epoch: 01 August)

Event Time Altitude Azimuth Distance (km) Brightness Sun altitude
Rises 06:30:22 0° 246° (WSW) 2,271 5.8 -17.0°
Reaches altitude 10° 06:32:28 10° 248° (WSW) 1,410 4.6 -17.4°
Maximum altitude 06:35:38 74° 333° (NNW) 402 1.1 -18.1°
Enters shadow 06:36:19 50° 42° (NE) 494 1.4 -18.2°
